Volver al catálogo

KUIPER-00221

ActivoComunicacionesLEO
NORAD 67147·PAYLOAD·🇺🇸 United States

Lanzado Dec 15, 2025 desde Cape Canaveral Space Force Station

Loading…

Próximos Pases (próximas 24 horas)

TLE

ActualizadoSource: CelesTrak SupGP

Época: Sep 14, 2026, 12:20 UTC

1 67147C 25301Q   26257.51401620  .00003585  00000+0  46922-3 0  2570
2 67147  51.9016 325.6549 0000608  71.5709  56.4651 14.79928121    18

Sigue KUIPER-00221 en tiempo real con AllMySat

Download on the App Store